EW0610 Weather Reports


Display with metric or nautical units.
time (UTC)temp
F
wind
direction
speed
MPH
gust
MPH
rain 1hr
in
rain 24hr
in
rain mn
in
humidity
%
barometer
mb
20260509005542 74 193 0.0 7.0 0.00 0.47 0.47 74 1008.0
20260509005026 74 204 0.0 10.0 0.00 0.47 0.47 74 1007.9
20260509004537 74 185 2.0 12.0 0.00 0.47 0.47 74 1007.8
20260509004024 74 197 2.0 12.0 0.00 0.47 0.47 74 1007.8
20260509003527 74 210 0.0 10.0 0.00 0.47 0.47 74 1007.7
20260509003027 74 207 0.0 6.0 0.00 0.47 0.47 74 1007.7
20260509002537 74 191 0.0 10.0 0.00 0.47 0.47 73 1007.7
20260509002025 74 204 0.0 10.0 0.00 0.47 0.47 73 1007.6
20260509001529 74 188 4.0 10.0 0.00 0.47 0.47 72 1007.6
20260509001036 74 186 4.0 10.0 0.00 0.47 0.47 72 1007.5
20260509000546 74 179 0.0 10.0 0.00 0.47 0.47 72 1007.5
20260509000048 74 197 2.0 11.0 0.00 0.47 0.47 71 1007.6
20260508235537 75 148 4.0 11.0 0.00 0.47 0.47 71 1007.6
20260508235045 75 213 0.0 3.0 0.00 0.47 0.47 71 1007.8
20260508234551 75 179 0.0 3.0 0.00 0.47 0.47 70 1007.9
20260508234020 75 179 0.0 6.0 0.00 0.47 0.47 70 1007.9
20260508233526 75 183 0.0 6.0 0.00 0.47 0.47 70 1007.9
20260508233040 75 183 0.0 12.0 0.00 0.47 0.47 70 1008.0
20260508232608 75 191 4.0 12.0 0.00 0.47 0.47 69 1008.1
20260508232053 75 190 5.0 11.0 0.00 0.47 0.47 69 1008.1
20260508231542 75 205 5.0 11.0 0.00 0.47 0.47 69 1008.1
20260508231101 75 196 2.0 9.0 0.00 0.47 0.47 69 1008.0
20260508230548 76 174 5.0 10.0 0.00 0.47 0.47 69 1008.0
20260508230033 76 204 4.0 10.0 0.00 0.47 0.47 68 1008.0
20260508225524 76 129 0.0 9.0 0.00 0.47 0.47 68 1008.0
20260508225029 76 166 4.0 9.0 0.00 0.47 0.47 67 1008.0
20260508224537 76 216 1.0 9.0 0.00 0.47 0.47 67 1008.0
20260508224026 76 165 2.0 9.0 0.00 0.47 0.47 67 1008.0
20260508223531 77 193 1.0 10.0 0.00 0.47 0.47 66 1008.1
20260508223040 77 191 1.0 10.0 0.00 0.47 0.47 66 1008.1
20260508222526 77 153 2.0 11.0 0.00 0.47 0.47 65 1008.1
20260508222031 77 168 5.0 11.0 0.00 0.47 0.47 65 1008.1
20260508221519 77 164 7.0 11.0 0.00 0.47 0.47 64 1008.1
20260508221053 77 191 4.0 13.0 0.00 0.47 0.47 63 1008.1
20260508220536 77 188 6.0 13.0 0.00 0.47 0.47 63 1008.1
20260508220027 77 199 3.0 12.0 0.00 0.47 0.47 62 1008.2
20260508215537 77 188 3.0 13.0 0.00 0.47 0.47 62 1008.2
20260508215034 77 163 2.0 13.0 0.00 0.47 0.47 62 1008.1
20260508214523 77 129 2.0 12.0 0.00 0.47 0.47 61 1008.1
20260508214031 77 148 6.0 12.0 0.00 0.47 0.47 61 1008.2
20260508213540 77 144 3.0 13.0 0.00 0.47 0.47 62 1008.2
20260508213044 77 132 7.0 13.0 0.00 0.47 0.47 62 1008.3
20260508212525 77 162 1.0 10.0 0.00 0.47 0.47 63 1008.3
20260508212031 76 165 0.0 7.0 0.00 0.47 0.47 62 1008.6
20260508211534 77 177 2.0 10.0 0.00 0.47 0.47 63 1008.7
20260508211038 77 118 1.0 10.0 0.00 0.47 0.47 64 1008.7
20260508210527 77 148 1.0 7.0 0.00 0.47 0.47 63 1008.9
20260508210034 77 126 1.0 9.0 0.00 0.47 0.47 63 1008.9
20260508205523 77 163 0.0 9.0 0.00 0.47 0.47 63 1008.9
20260508205038 77 118 2.0 7.0 0.00 0.47 0.47 63 1008.9
20260508204520 76 104 0.0 10.0 0.00 0.47 0.47 65 1008.8
20260508204024 76 148 4.0 11.0 0.00 0.47 0.47 64 1008.6
20260508203546 76 110 6.0 12.0 0.00 0.47 0.47 64 1009.0
20260508203030 75 121 5.0 12.0 0.00 0.47 0.47 64 1009.3
20260508202532 74 174 2.0 12.0 0.00 0.47 0.47 65 1009.7
20260508202039 73 181 1.0 11.0 0.00 0.47 0.47 66 1009.9
20260508201522 73 183 6.0 11.0 0.00 0.47 0.47 66 1010.2
20260508201022 73 191 2.0 12.0 0.00 0.47 0.47 66 1010.3
20260508200528 73 219 5.0 12.0 0.00 0.47 0.47 66 1010.5
20260508200039 73 225 2.0 11.0 0.00 0.47 0.47 66 1010.6
20260508195525 74 193 4.0 11.0 0.00 0.47 0.47 65 1010.7
20260508195033 74 136 1.0 9.0 0.00 0.47 0.47 65 1010.6
20260508194523 74 190 1.0 6.0 0.00 0.47 0.47 65 1010.5
20260508194032 74 211 0.0 7.0 0.00 0.47 0.47 65 1010.6
20260508193527 74 133 0.0 12.0 0.00 0.47 0.47 65 1010.5
20260508193028 75 208 3.0 12.0 0.00 0.47 0.47 64 1010.5
20260508192536 75 189 1.0 6.0 0.00 0.47 0.47 65 1010.5
20260508192042 74 167 1.0 11.0 0.00 0.47 0.47 65 1010.5
20260508191527 74 175 4.0 11.0 0.00 0.47 0.47 65 1010.6
20260508191037 75 177 3.0 10.0 0.00 0.47 0.47 64 1010.7
20260508190523 75 204 2.0 9.0 0.00 0.47 0.47 63 1010.7
20260508190028 75 183 3.0 9.0 0.00 0.47 0.47 64 1010.7
20260508185530 75 212 0.0 7.0 0.00 0.47 0.47 64 1010.7
20260508185034 75 177 1.0 7.0 0.00 0.47 0.47 63 1010.7
20260508184541 75 153 3.0 6.0 0.00 0.47 0.47 64 1010.8
20260508184028 75 195 1.0 9.0 0.00 0.47 0.47 63 1010.8
20260508183538 75 180 4.0 10.0 0.00 0.47 0.47 63 1010.9
20260508183026 75 179 0.0 10.0 0.00 0.47 0.47 62 1011.0
20260508182529 76 133 2.0 9.0 0.00 0.47 0.47 62 1011.1
20260508182035 76 187 1.0 9.0 0.00 0.47 0.47 63 1011.1
20260508181520 76 179 0.0 9.0 0.00 0.47 0.47 62 1011.3
20260508181031 75 182 0.0 10.0 0.00 0.47 0.47 63 1011.3
20260508180603 75 189 3.0 10.0 0.00 0.47 0.47 63 1011.4
20260508180043 75 177 2.0 11.0 0.00 0.47 0.47 62 1011.5
20260508175551 74 196 1.0 11.0 0.00 0.47 0.47 63 1011.6
20260508175040 74 190 3.0 9.0 0.00 0.47 0.47 62 1011.8
20260508174533 75 217 1.0 7.0 0.00 0.47 0.47 62 1011.8
20260508174103 75 193 1.0 7.0 0.00 0.47 0.47 62 1011.8
20260508173527 74 172 1.0 7.0 0.00 0.47 0.47 64 1011.9
20260508173029 74 158 1.0 7.0 0.00 0.47 0.47 63 1011.9
20260508172531 73 175 1.0 11.0 0.00 0.47 0.47 67 1012.0
20260508172036 73 206 7.0 11.0 0.00 0.47 0.47 65 1012.1
20260508171546 73 234 1.0 8.0 0.00 0.47 0.47 66 1012.1
20260508171024 73 194 1.0 7.0 0.00 0.47 0.47 66 1012.2
20260508170531 73 187 2.0 7.0 0.00 0.47 0.47 67 1012.2
20260508170105 73 204 2.0 7.0 0.00 0.47 0.47 66 1012.3
20260508165527 73 176 1.0 6.0 0.00 0.47 0.47 67 1012.4
20260508165030 72 202 0.0 6.0 0.00 0.47 0.47 66 1012.5
20260508164536 73 153 2.0 8.0 0.00 0.47 0.47 66 1012.5
20260508164038 73 104 5.0 8.0 0.00 0.47 0.47 66 1012.6
20260508163522 72 113 3.0 8.0 0.00 0.47 0.47 65 1012.8
20260508163035 71 124 5.0 8.0 0.00 0.47 0.47 66 1012.9
20260508162540 71 179 4.0 6.0 0.00 0.47 0.47 68 1013.1
20260508162023 70 153 4.0 7.0 0.00 0.47 0.47 68 1013.2
20260508161531 70 148 4.0 7.0 0.00 0.47 0.47 68 1013.3
20260508161034 70 126 3.0 9.0 0.00 0.47 0.47 68 1013.3
20260508160524 69 129 5.0 9.0 0.00 0.47 0.47 68 1013.4
20260508160032 69 187 4.0 9.0 0.00 0.47 0.47 68 1013.4
20260508155537 69 193 3.0 9.0 0.00 0.47 0.47 67 1013.3
20260508155026 69 95 4.0 6.0 0.00 0.47 0.47 67 1013.4
20260508154529 69 177 2.0 7.0 0.00 0.47 0.47 67 1013.4
20260508154031 69 173 4.0 7.0 0.00 0.47 0.47 68 1013.5
20260508153539 69 148 3.0 6.0 0.00 0.47 0.47 68 1013.5
20260508153024 68 164 4.0 7.0 0.00 0.47 0.47 67 1013.6
20260508152552 68 116 4.0 7.0 0.00 0.47 0.47 68 1013.6
20260508152031 68 172 2.0 6.0 0.00 0.47 0.47 69 1013.7
20260508151540 67 200 4.0 7.0 0.00 0.47 0.47 69 1013.7
20260508151025 67 183 5.0 7.0 0.00 0.47 0.47 70 1013.9
20260508150534 66 202 2.0 6.0 0.00 0.47 0.47 72 1013.8
20260508150039 66 204 2.0 6.0 0.00 0.47 0.47 72 1014.0
20260508145545 66 204 3.0 5.0 0.00 0.47 0.47 72 1014.0
20260508145029 66 201 2.0 4.0 0.00 0.47 0.47 73 1014.1
20260508144531 65 200 1.0 4.0 0.00 0.47 0.47 73 1014.2
20260508144038 65 202 0.0 6.0 0.00 0.47 0.47 74 1014.2
20260508143522 65 202 4.0 6.0 0.00 0.47 0.47 74 1014.2
20260508143029 65 127 4.0 6.0 0.00 0.47 0.47 75 1014.0
20260508142537 65 209 2.0 6.0 0.00 0.47 0.47 75 1014.0
20260508142043 65 170 4.0 6.0 0.00 0.47 0.47 74 1014.1
20260508141528 64 179 3.0 6.0 0.00 0.47 0.47 75 1014.2
20260508141031 64 186 0.0 6.0 0.01 0.47 0.47 76 1014.2
20260508140537 64 183 3.0 6.0 0.01 0.47 0.47 77 1014.2
20260508140039 64 214 2.0 7.0 0.01 0.47 0.47 78 1014.1
20260508135556 63 153 4.0 7.0 0.01 0.47 0.47 79 1014.1
20260508135026 63 194 1.0 8.0 0.01 0.47 0.47 80 1014.2
20260508134534 63 204 3.0 8.0 0.01 0.47 0.47 81 1014.1
20260508134042 63 201 2.0 7.0 0.01 0.47 0.47 82 1013.9
20260508133526 63 203 0.0 7.0 0.01 0.47 0.47 82 1014.0
20260508133033 63 175 0.0 6.0 0.02 0.47 0.47 83 1014.1
20260508132525 63 135 0.0 6.0 0.02 0.47 0.47 83 1014.0
20260508132100 62 135 0.0 9.0 0.02 0.47 0.47 82 1014.0
20260508131528 62 139 4.0 9.0 0.02 0.47 0.47 82 1013.9
20260508131034 62 144 0.0 4.0 0.03 0.46 0.46 82 1013.9
20260508130545 62 187 0.0 5.0 0.03 0.46 0.46 83 1013.9
20260508130030 62 193 2.0 5.0 0.03 0.46 0.46 84 1014.2
20260508125538 61 182 0.0 5.0 0.04 0.46 0.46 85 1014.0
20260508125041 61 183 3.0 5.0 0.07 0.46 0.46 85 1014.3
20260508124523 61 199 0.0 1.0 0.07 0.46 0.46 85 1014.3
20260508124027 61 199 0.0 4.0 0.07 0.46 0.46 85 1014.2
20260508123538 61 199 1.0 4.0 0.07 0.46 0.46 85 1014.3
20260508123041 61 200 3.0 4.0 0.06 0.45 0.45 85 1014.4
20260508122544 61 199 0.0 0.0 0.06 0.45 0.45 85 1014.2
20260508122053 61 199 0.0 2.0 0.06 0.45 0.45 85 1014.2
20260508121540 61 199 0.0 4.0 0.06 0.45 0.45 85 1014.3
20260508121024 60 200 0.0 5.0 0.04 0.43 0.43 86 1014.2
20260508120600 60 203 1.0 7.0 0.04 0.43 0.43 86 1014.5
20260508120025 60 201 0.0 10.0 0.04 0.43 0.43 86 1014.6
20260508115531 61 116 3.0 10.0 0.03 0.42 0.42 86 1013.9
20260508115036 61 122 3.0 10.0 0.00 0.39 0.39 86 1014.7
20260508114540 61 218 0.0 5.0 0.00 0.39 0.39 87 1014.9
20260508114028 61 129 1.0 3.0 0.00 0.39 0.39 87 1013.9
20260508113535 61 124 0.0 0.0 0.00 0.39 0.39 87 1014.2
20260508113043 60 122 0.0 0.0 0.00 0.39 0.39 87 1014.2
20260508112531 61 122 0.0 0.0 0.00 0.39 0.39 87 1014.3
20260508112037 61 122 0.0 0.0 0.03 0.39 0.39 87 1014.2
20260508111524 61 122 0.0 0.0 0.18 0.39 0.39 87 1014.2
20260508111028 60 122 0.0 0.0 0.22 0.39 0.39 87 1014.2
20260508110531 60 122 0.0 3.0 0.22 0.39 0.39 87 1013.9
20260508110038 60 122 0.0 3.0 0.22 0.39 0.39 87 1013.9
20260508105548 60 121 0.0 0.0 0.22 0.39 0.39 87 1013.8
20260508105033 61 121 0.0 0.0 0.23 0.39 0.39 87 1014.0
20260508104540 61 121 0.0 0.0 0.23 0.39 0.39 87 1014.1
20260508104023 60 121 0.0 0.0 0.23 0.39 0.39 86 1014.0
20260508103531 60 121 0.0 2.0 0.23 0.39 0.39 86 1013.9
20260508103041 60 122 0.0 3.0 0.26 0.39 0.39 86 1013.9
20260508102532 60 121 0.0 4.0 0.27 0.39 0.39 86 1013.8
20260508102038 61 123 0.0 4.0 0.25 0.37 0.37 86 1014.0
20260508101544 61 220 0.0 2.0 0.10 0.22 0.22 86 1014.6
20260508101027 61 214 0.0 2.0 0.05 0.17 0.17 86 1014.5
20260508100524 61 139 0.0 0.0 0.05 0.17 0.17 86 1013.9
20260508100037 61 135 0.0 0.0 0.05 0.17 0.17 86 1013.7
20260508095525 61 135 0.0 0.0 0.05 0.17 0.17 86 1013.8
20260508095033 61 135 0.0 0.0 0.04 0.16 0.16 86 1013.7
20260508094544 61 135 0.0 3.0 0.04 0.16 0.16 86 1013.8
20260508094048 61 136 0.0 3.0 0.04 0.16 0.16 85 1013.6
20260508093532 61 127 2.0 3.0 0.04 0.16 0.16 85 1013.5
20260508093100 61 123 0.0 2.0 0.02 0.14 0.14 86 1013.6
20260508092526 61 123 0.0 0.0 0.01 0.12 0.12 85 1013.7
20260508092100 61 123 0.0 0.0 0.01 0.12 0.12 85 1013.6
20260508091540 60 122 0.0 0.0 0.01 0.12 0.12 85 1013.7
20260508091023 60 123 0.0 0.0 0.01 0.12 0.12 85 1013.7
20260508090529 60 122 0.0 0.0 0.01 0.12 0.12 85 1013.9
20260508090036 60 122 0.0 0.0 0.01 0.12 0.12 85 1013.9
20260508085524 60 122 0.0 0.0 0.01 0.12 0.12 85 1013.8
20260508085032 60 122 0.0 0.0 0.01 0.12 0.12 85 1014.0
20260508084537 60 122 0.0 1.0 0.01 0.12 0.12 85 1014.1
20260508084023 60 122 0.0 0.0 0.01 0.12 0.12 85 1013.9
20260508083527 60 122 0.0 0.0 0.02 0.12 0.12 84 1013.9
20260508083032 60 123 0.0 0.0 0.02 0.12 0.12 84 1013.9
20260508082533 60 123 0.0 0.0 0.01 0.11 0.11 84 1014.1
20260508082040 60 123 0.0 0.0 0.01 0.11 0.11 84 1014.3
20260508081523 60 123 0.0 0.0 0.02 0.11 0.11 84 1014.2
20260508081057 61 123 0.0 1.0 0.03 0.11 0.11 83 1014.6
20260508080543 61 123 0.0 1.0 0.10 0.11 0.11 83 1014.7
20260508080029 61 123 0.0 0.0 0.11 0.11 0.11 83 1014.7
20260508075552 61 123 0.0 0.0 0.11 0.11 0.11 82 1014.4
20260508075101 61 123 0.0 4.0 0.11 0.11 0.11 82 1014.0
20260508074544 61 122 0.0 4.0 0.11 0.11 0.11 81 1014.0
20260508074026 61 116 0.0 5.0 0.11 0.11 0.11 80 1014.4
20260508073532 61 115 0.0 5.0 0.10 0.10 0.10 79 1014.4
20260508073039 61 231 0.0 4.0 0.10 0.10 0.10 79 1015.0
20260508072539 61 232 1.0 4.0 0.10 0.10 0.10 78 1015.3
20260508072025 61 231 0.0 1.0 0.10 0.10 0.10 77 1015.4
20260508071529 62 233 0.0 1.0 0.09 0.09 0.09 76 1015.3
20260508071032 63 233 0.0 1.0 0.08 0.08 0.08 73 1015.4
20260508070539 63 230 0.0 2.0 0.01 0.01 0.01 72 1015.6
20260508070046 64 230 0.0 2.0 0.00 0.00 0.00 70 1015.3
20260508065553 64 230 0.0 0.0 0.00 0.00 0.00 70 1015.3
20260508065023 64 195 0.0 0.0 0.00 0.00 0.00 69 1015.1
20260508064523 64 195 0.0 0.0 0.00 0.00 0.00 70 1014.9
20260508064031 64 195 0.0 0.0 0.00 0.00 0.00 70 1014.8
20260508063522 64 195 0.0 0.0 0.00 0.00 0.00 71 1015.1
20260508063033 63 195 0.0 0.0 0.00 0.00 0.00 70 1015.2
20260508062520 63 195 0.0 0.0 0.00 0.00 0.00 71 1015.3
20260508062028 63 195 0.0 0.0 0.00 0.00 0.00 71 1015.4
20260508061552 64 195 0.0 0.0 0.00 0.00 0.00 71 1015.5
20260508061036 64 195 0.0 0.0 0.00 0.00 0.00 69 1015.4
20260508060543 64 195 0.0 0.0 0.00 0.00 0.00 68 1015.2
20260508060044 64 195 0.0 0.0 0.00 0.00 0.00 67 1015.3
20260508055527 65 196 0.0 1.0 0.00 0.00 0.00 63 1015.5
20260508055032 65 195 0.0 0.0 0.00 0.00 0.00 63 1015.4
20260508054539 65 195 0.0 0.0 0.00 0.00 0.00 63 1015.5
20260508054041 65 195 0.0 0.0 0.00 0.00 0.00 64 1015.4
20260508053539 64 195 0.0 0.0 0.00 0.00 0.00 66 1015.3
20260508053109 64 195 0.0 0.0 0.00 0.00 0.00 67 1015.3
20260508052529 64 195 0.0 0.0 0.00 0.00 0.00 68 1015.3
20260508052037 64 195 0.0 0.0 0.00 0.00 0.00 68 1015.2
20260508051546 64 195 0.0 0.0 0.00 0.00 0.00 67 1015.3
20260508051033 64 195 0.0 0.0 0.00 0.00 0.00 67 1015.4
20260508050536 64 195 0.0 0.0 0.00 0.00 0.00 68 1015.4
20260508050044 64 195 0.0 0.0 0.00 0.00 0.00 68 1015.6
20260508045527 64 195 0.0 0.0 0.00 0.00 0.00 69 1015.4
20260508045032 63 195 0.0 0.0 0.00 0.00 0.00 69 1015.4
20260508044542 63 195 0.0 0.0 0.00 0.00 0.00 69 1015.5
20260508044050 63 195 0.0 0.0 0.00 0.00 0.00 68 1015.5
20260508043548 64 195 0.0 0.0 0.00 0.00 0.00 68 1015.6
20260508043032 63 195 0.0 0.0 0.00 0.00 0.00 68 1015.5
20260508042525 64 195 0.0 0.0 0.00 0.00 0.00 68 1015.3
20260508042029 64 195 0.0 0.0 0.00 0.00 0.00 67 1015.4
20260508041522 64 195 0.0 0.0 0.00 0.00 0.00 67 1015.4
20260508041050 64 195 0.0 0.0 0.00 0.00 0.00 66 1015.5
20260508040535 64 195 0.0 0.0 0.00 0.00 0.00 65 1015.4
20260508040023 64 195 0.0 0.0 0.00 0.00 0.00 66 1015.4
20260508035547 64 195 0.0 0.0 0.00 0.00 0.00 64 1015.5
20260508035031 65 195 0.0 0.0 0.00 0.00 0.00 63 1015.5
20260508034539 64 195 0.0 0.0 0.00 0.00 0.00 63 1015.4
20260508034028 64 195 0.0 0.0 0.00 0.00 0.00 64 1015.3
20260508033538 65 195 0.0 0.0 0.00 0.00 0.00 62 1015.2
20260508033025 65 195 0.0 0.0 0.00 0.00 0.00 61 1015.1
20260508032533 66 195 0.0 3.0 0.00 0.00 0.00 60 1015.1
20260508032054 66 195 0.0 3.0 0.00 0.00 0.00 60 1015.1
20260508031537 66 196 0.0 3.0 0.00 0.00 0.00 60 1015.1
20260508031025 66 195 0.0 1.0 0.00 0.00 0.00 61 1015.1
20260508030532 66 195 0.0 0.0 0.00 0.00 0.00 60 1015.1
20260508030036 66 196 0.0 5.0 0.00 0.00 0.00 60 1014.9
20260508025525 66 196 2.0 5.0 0.00 0.00 0.00 59 1014.9
20260508025034 66 199 0.0 5.0 0.00 0.00 0.00 60 1014.9
20260508024523 67 199 0.0 9.0 0.00 0.00 0.00 59 1014.9
20260508024033 67 136 0.0 9.0 0.00 0.00 0.00 59 1014.8
20260508023523 67 173 0.0 4.0 0.00 0.00 0.00 59 1014.7
20260508023055 67 182 0.0 4.0 0.00 0.00 0.00 59 1014.6
20260508022558 67 158 0.0 0.0 0.00 0.00 0.00 59 1014.5
20260508022041 67 148 0.0 0.0 0.00 0.00 0.00 59 1014.5
20260508021607 67 158 0.0 5.0 0.00 0.00 0.00 59 1014.6
20260508021054 67 158 0.0 5.0 0.00 0.00 0.00 59 1014.4
20260508020522 67 208 1.0 5.0 0.00 0.00 0.00 58 1014.4
20260508020030 67 166 0.0 5.0 0.00 0.00 0.00 58 1014.4
20260508015553 68 163 1.0 7.0 0.00 0.00 0.00 57 1014.4
20260508015033 68 163 4.0 7.0 0.00 0.00 0.00 57 1014.4
20260508014540 68 197 1.0 4.0 0.00 0.00 0.00 56 1014.4
20260508014026 68 195 0.0 6.0 0.00 0.00 0.00 57 1014.4
20260508013531 68 201 1.0 6.0 0.00 0.00 0.00 57 1014.3
20260508013021 68 205 1.0 5.0 0.00 0.00 0.00 57 1014.3
20260508012534 68 206 1.0 4.0 0.00 0.00 0.00 57 1014.3
20260508012022 68 208 0.0 5.0 0.00 0.00 0.00 57 1014.3
20260508011528 68 195 0.0 7.0 0.00 0.00 0.00 57 1014.3
20260508011046 68 196 0.0 7.0 0.00 0.00 0.00 56 1014.3
20260508010601 69 179 1.0 5.0 0.00 0.00 0.00 56 1014.4
20260508010024 69 197 1.0 6.0 0.00 0.00 0.00 55 1014.4